Vorticity
5 4 5 4 4 4 4 4 4 4 4 4 4 4 5 5 5 3 4 5 5 4 3 4 6 4 4 4 7 10 9 8 7 7 6 7 8 10 8 7 5 7 6
5 5 5 5 5 5 6 6 5 5 4 4 4 4 4 4 3 4 4 4 4 3 4 4 5 5 2 1 3 8 5 3 5 9 7 8 11 10 6 8 7 7 7
2 4 3 2 3 3 4 5 5 6 5 5 4 4 4 3 4 4 5 4 4 4 4 5 4 3 -1 -1 -3 3 7 5 9 9 6 10 13 9 2 6 6 9 7
5 3 1 4 5 2 4 4 4 5 5 6 5 4 4 4 4 5 4 3 4 4 4 4 5 1 -0 -2 -2 3 6 9 11 8 7 13 12 5 5 6 6 7 7
-3 3 2 1 2 5 6 6 5 5 5 6 6 5 5 5 5 5 4 4 5 4 4 5 3 -1 0 10 14 7 10 9 12 6 11 6 11 1 11 6 4 7 8
14 14 5 7 8 7 6 6 7 7 6 6 6 5 5 6 6 5 5 4 3 5 6 2 -1 2 5 -0 1 9 15 12 9 1 15 3 2 4 9 7 7 5 9
10 10 8 6 5 4 5 6 5 6 6 6 6 5 7 6 6 5 6 3 5 5 3 -0 5 7 1 1 17 13 11 8 4 9 11 5 6 11 7 6 8 6 9
14 11 4 5 3 3 3 3 4 5 4 5 5 6 7 10 6 6 8 9 7 8 13 4 -9 7 12 15 9 8 7 7 5 11 11 4 5 7 7 7 7 7 7
8 4 -3 6 6 6 3 7 1 6 16 11 8 5 0 -2 1 3 4 8 7 3 -6 2 12 7 7 7 7 8 7 6 5 8 19 6 8 7 9 7 7 6 7
-1 1 8 5 4 10 12 3 9 7 3 10 12 10 11 6 7 10 6 6 4 -11 12 3 14 13 8 8 7 9 9 7 7 7 10 6 8 6 9 9 7 7 8
7 -7 2 4 9 15 -1 4 2 28 3 8 20 -0 7 7 6 13 2 8 7 10 14 17 16 4 7 11 7 7 9 9 9 7 6 6 5 7 8 8 8 9 9
14 2 20 18 -1 13 21 7 2 -8 -1 16 2 11 -1 6 5 0 4 5 3 11 13 8 1 6 7 -0 7 6 10 8 8 7 6 7 6 11 9 8 9 9 9
12 3 -3 2 2 -2 16 4 -0 12 13 14 12 13 9 8 4 0 3 3 -4 8 1 5 9 6 6 10 8 6 4 7 8 7 7 8 9 7 10 8 8 10 9
-1 16 3 2 21 0 -13 -11 24 17 -8 -4 6 5 5 2 -0 1 3 3 8 9 8 7 8 3 6 8 8 2 5 8 10 11 10 7 10 15 12 11 9 12 9
9 5 -7 9 -7 13 -10 28 11 2 -18 -11 -3 11 12 15 8 9 5 8 8 14 15 17 17 13 9 10 7 8 7 13 12 16 10 19 13 9 10 10 11 10 10
13 12 7 -10 -1 11 2 -2 -23 -9 1 15 18 9 5 2 10 12 12 9 8 4 8 7 4 9 11 14 12 13 12 21 18 5 9 4 9 10 14 10 10 10 11
10 9 14 21 20 20 12 16 13 17 15 11 11 12 13 12 4 9 6 12 9 13 10 13 9 12 11 12 11 10 10 20 30 38 10 8 19 11 9 13 11 10 12
6 7 4 6 7 8 7 4 8 7 6 9 11 11 11 10 15 10 8 11 11 17 19 21 15 17 12 16 23 26 15 12 14 8 5 33 5 23 12 13 9 11 11
10 7 7 9 9 10 12 12 15 15 15 16 12 11 9 11 15 17 15 11 8 6 7 6 8 7 13 16 6 17 7 0 13 6 10 15 13 10 10 12 8 7 10
16 17 18 16 15 12 14 14 13 11 11 11 12 11 9 8 6 4 3 -1 4 4 8 12 11 10 8 6 7 9 12 13 8 26 10 11 8 15 3 11 8 9 11
6 7 7 9 9 6 4 5 5 4 5 3 3 2 3 4 6 8 6 15 16 17 14 12 9 8 13 14 13 10 3 9 11 13 10 20 6 10 13 7 13 9 10
5 3 5 6 5 4 6 7 7 6 5 5 4 6 14 12 12 15 17 15 16 16 15 15 15 17 15 17 15 15 16 15 14 15 10 10 14 6 3 11 10 12 14
4 6 6 6 5 3 3 3 4 5 3 6 13 7 9 11 11 11 10 10 10 13 14 15 19 17 17 13 9 14 13 16 17 17 10 11 5 3 11 9 10 9 9
10 10 7 4 2 4 5 6 9 10 13 15 18 15 13 8 9 11 11 15 18 18 17 15 15 13 11 8 8 4 13 25 20 13 7 -1 -4 15 8 10 11 14 15
7 7 6 6 4 4 7 11 9 11 11 14 13 11 11 13 11 13 20 14 14 13 23 23 18 13 10 13 11 19 12 26 11 1 4 10 12 14 11 9 8 7 9
6 5 4 4 6 8 11 11 12 14 9 11 4 6 8 10 9 22 7 12 11 13 6 11 18 12 19 11 11 12 21 31 22 2 3 9 8 14 12 7 11 13 21
Height
5850 5852 5854 5856 5857 5859 5860 5861 5862 5862 5863 5864 5863 5863 5863 5862 5862 5862 5862 5861 5859 5857 5856 5855 5853 5850 5847 5844 5842 5838 5835 5831 5827 5824 5820 5816 5813 5810 5806 5803 5800 5795 5792
5844 5846 5848 5850 5852 5853 5854 5855 5856 5857 5857 5858 5858 5858 5858 5857 5857 5856 5855 5855 5854 5852 5850 5848 5846 5844 5841 5838 5835 5832 5828 5825 5822 5818 5814 5811 5808 5805 5802 5798 5794 5791 5787
5838 5841 5842 5844 5845 5846 5847 5848 5850 5851 5851 5852 5852 5852 5851 5851 5851 5850 5849 5848 5847 5845 5844 5842 5840 5838 5835 5832 5829 5826 5822 5819 5816 5813 5809 5806 5804 5800 5797 5793 5789 5786 5782
5831 5833 5836 5838 5838 5839 5840 5842 5842 5843 5845 5845 5845 5845 5845 5845 5843 5843 5842 5841 5841 5840 5838 5836 5834 5832 5830 5826 5823 5821 5817 5812 5810 5806 5803 5800 5796 5794 5792 5788 5784 5780 5777
5826 5828 5830 5832 5833 5833 5834 5835 5836 5837 5836 5837 5838 5838 5838 5837 5837 5836 5834 5833 5833 5832 5832 5830 5828 5826 5823 5820 5816 5813 5810 5806 5802 5799 5797 5794 5791 5788 5786 5783 5780 5776 5771
5819 5821 5823 5826 5827 5827 5827 5828 5828 5830 5830 5829 5829 5830 5830 5830 5830 5828 5827 5825 5824 5824 5823 5822 5820 5818 5816 5812 5808 5805 5801 5798 5795 5792 5789 5788 5784 5782 5779 5777 5774 5770 5766
5812 5813 5816 5818 5820 5821 5820 5820 5821 5822 5823 5822 5823 5823 5822 5821 5821 5820 5818 5817 5816 5815 5815 5814 5811 5809 5807 5804 5800 5797 5794 5791 5788 5786 5782 5780 5778 5775 5773 5769 5767 5764 5761
5805 5804 5807 5810 5811 5811 5812 5812 5813 5813 5813 5814 5814 5813 5813 5813 5813 5812 5811 5810 5809 5807 5805 5804 5802 5800 5797 5795 5792 5789 5786 5784 5782 5779 5776 5773 5770 5769 5766 5763 5760 5758 5755
5798 5798 5799 5801 5802 5803 5803 5804 5804 5804 5804 5804 5804 5805 5805 5805 5804 5803 5802 5801 5801 5799 5797 5795 5792 5790 5788 5785 5782 5780 5779 5776 5774 5771 5768 5766 5764 5761 5758 5756 5753 5750 5748
5790 5791 5792 5792 5793 5792 5793 5794 5795 5795 5795 5793 5794 5796 5796 5796 5797 5797 5796 5795 5793 5792 5789 5786 5784 5781 5779 5777 5774 5771 5769 5767 5765 5762 5760 5758 5756 5754 5751 5748 5746 5744 5742
5781 5783 5783 5783 5783 5784 5785 5785 5786 5787 5786 5785 5786 5786 5785 5784 5784 5785 5787 5785 5784 5782 5780 5777 5775 5772 5770 5768 5765 5761 5759 5757 5755 5754 5751 5749 5747 5745 5742 5741 5740 5737 5735
5772 5774 5776 5776 5776 5776 5777 5777 5777 5778 5777 5776 5776 5776 5776 5775 5775 5774 5774 5773 5772 5771 5768 5767 5765 5762 5759 5757 5755 5753 5750 5748 5745 5745 5742 5739 5739 5737 5734 5732 5731 5730 5728
5762 5764 5766 5767 5767 5767 5768 5768 5768 5768 5767 5766 5766 5766 5766 5765 5764 5764 5763 5762 5761 5758 5757 5754 5751 5750 5747 5746 5743 5741 5739 5737 5735 5734 5732 5730 5729 5728 5726 5725 5724 5722 5721
5754 5754 5755 5756 5757 5759 5758 5757 5756 5756 5757 5757 5755 5754 5753 5752 5753 5753 5752 5750 5748 5747 5746 5743 5740 5737 5735 5733 5731 5728 5727 5725 5724 5723 5721 5719 5718 5719 5717 5715 5714 5714 5713
5743 5744 5746 5745 5745 5748 5747 5746 5745 5745 5745 5744 5744 5744 5744 5742 5741 5740 5739 5737 5734 5733 5732 5731 5727 5724 5721 5719 5717 5714 5713 5711 5710 5710 5707 5707 5707 5706 5706 5705 5704 5705 5705
5733 5734 5734 5734 5735 5736 5735 5734 5733 5733 5734 5733 5732 5732 5732 5731 5729 5728 5726 5723 5721 5720 5719 5718 5714 5711 5708 5706 5705 5703 5701 5699 5698 5696 5695 5696 5696 5696 5696 5695 5695 5696 5697
5721 5722 5722 5725 5726 5724 5723 5721 5721 5721 5721 5722 5721 5721 5719 5718 5717 5715 5713 5711 5708 5706 5704 5702 5700 5697 5694 5693 5691 5689 5688 5686 5686 5685 5684 5685 5684 5685 5685 5687 5687 5688 5688
5710 5710 5710 5712 5713 5714 5714 5712 5711 5710 5711 5710 5709 5709 5707 5706 5704 5701 5699 5697 5695 5692 5690 5688 5686 5685 5683 5680 5678 5677 5676 5675 5674 5674 5674 5674 5674 5674 5675 5677 5678 5680 5681
5699 5699 5700 5701 5701 5702 5701 5701 5700 5700 5700 5699 5697 5697 5695 5693 5691 5690 5688 5686 5683 5681 5679 5677 5675 5673 5672 5670 5668 5667 5665 5664 5664 5663 5663 5665 5666 5667 5668 5669 5669 5672 5673
5690 5690 5689 5689 5688 5689 5689 5689 5689 5688 5688 5687 5686 5685 5684 5682 5680 5677 5676 5674 5673 5671 5668 5665 5664 5662 5661 5659 5658 5657 5656 5654 5655 5653 5654 5655 5657 5659 5659 5661 5662 5663 5664
5678 5679 5680 5680 5681 5681 5680 5680 5679 5679 5677 5677 5676 5675 5673 5671 5669 5668 5666 5663 5660 5657 5654 5652 5651 5650 5649 5648 5647 5646 5646 5645 5644 5644 5644 5645 5649 5650 5651 5652 5653 5654 5655
5666 5667 5668 5670 5670 5670 5670 5669 5668 5668 5667 5666 5664 5663 5662 5659 5658 5655 5652 5649 5647 5644 5642 5640 5639 5638 5637 5637 5636 5635 5635 5635 5635 5636 5636 5638 5640 5642 5642 5642 5644 5645 5647
5652 5653 5653 5654 5655 5655 5656 5655 5656 5654 5654 5653 5652 5651 5649 5647 5645 5643 5641 5638 5635 5632 5630 5628 5627 5626 5626 5626 5625 5625 5625 5624 5625 5626 5629 5631 5632 5633 5633 5634 5636 5637 5638
5637 5639 5640 5642 5642 5642 5641 5642 5642 5641 5641 5641 5640 5638 5637 5636 5634 5631 5629 5626 5623 5620 5618 5617 5616 5616 5616 5616 5616 5615 5615 5615 5615 5618 5620 5622 5624 5624 5625 5626 5628 5629 5630
5625 5625 5626 5627 5628 5628 5629 5630 5630 5630 5629 5629 5629 5628 5627 5625 5622 5620 5618 5615 5613 5611 5608 5607 5606 5606 5606 5605 5605 5605 5605 5606 5608 5609 5612 5614 5616 5617 5617 5618 5620 5621 5622
5607 5609 5611 5612 5613 5614 5615 5616 5617 5617 5617 5618 5618 5617 5615 5614 5612 5610 5608 5606 5604 5602 5600 5599 5598 5597 5597 5596 5596 5596 5596 5597 5599 5602 5605 5607 5608 5609 5610 5611 5612 5612 5613